Back to catalog

STARLINK-35253

AliveCommunicationsSSO
NORAD 65596·PAYLOAD·🇺🇸 United States

Launched Sep 13, 2025 from Cape Canaveral Space Force Station

Loading…

Next Passes (next 24 hours)

TLE

FreshSource: CelesTrak SupGP

Epoch: Sep 14, 2026, 14:04 UTC

1 65596C 25207E   26257.58659722  .02308100  00000+0  13196+0 0  2572
2 65596  97.2844 320.2429 0001656  95.0874 300.4552 15.11609082    13

Track STARLINK-35253 in real time with AllMySat

Download on the App Store